TUI106 EDDS-LIPE

Flight info

Callsign TUI106
Flight time 0h 50m
Altitude 31000
Route ROTWE5B ROTWE Y126 TUBLO N850 NATOR/N0458F310 DCT TRA DCT ARGAX DCT RESIA DCT ATPED DCT TAGIP DCT MOVOR DCT ADOSA/N0392F190 M738 BENUS
Aircraft B738/M-SDE2E3FGHIRWXY/LB1

Departure

Time 2026-05-06 08:48
Airport Stuttgart Airport (EDDS)

Arrival

Time 2026-05-06 09:38
Airport Bologna Guglielmo Marconi Airport (LIPE)
Time Latitude Longitude Altitude Speed Heading
2026-05-06 08:33 48.68964 9.19778 1309 ft 0 kts 344°
2026-05-06 08:38 48.68946 9.19785 1308 ft 4 kts 345°
2026-05-06 08:38 48.68921 9.19797 1306 ft 4 kts 344°
2026-05-06 08:38 48.68896 9.19800 1304 ft 4 kts 21°
2026-05-06 08:38 48.68877 9.19780 1304 ft 3 kts 57°
2026-05-06 08:39 48.68874 9.19773 1304 ft 2 kts 58°
2026-05-06 08:40 48.68884 9.19796 1304 ft 6 kts 57°
2026-05-06 08:41 48.68872 9.19878 1300 ft 13 kts 150°
2026-05-06 08:41 48.68824 9.19986 1294 ft 16 kts 61°
2026-05-06 08:41 48.68861 9.20147 1291 ft 18 kts 74°
2026-05-06 08:41 48.68900 9.20351 1290 ft 23 kts 73°
2026-05-06 08:42 48.68950 9.20612 1281 ft 28 kts 74°
2026-05-06 08:42 48.69003 9.20899 1272 ft 28 kts 74°
2026-05-06 08:42 48.69055 9.21174 1268 ft 26 kts 73°
2026-05-06 08:42 48.69106 9.21431 1270 ft 25 kts 73°
2026-05-06 08:43 48.69150 9.21672 1260 ft 23 kts 74°
2026-05-06 08:43 48.69194 9.21901 1256 ft 23 kts 73°
2026-05-06 08:43 48.69246 9.22177 1248 ft 29 kts 74°
2026-05-06 08:43 48.69303 9.22475 1235 ft 29 kts 73°
2026-05-06 08:44 48.69359 9.22758 1230 ft 27 kts 73°
2026-05-06 08:44 48.69411 9.23024 1224 ft 25 kts 76°
2026-05-06 08:44 48.69454 9.23277 1219 ft 25 kts 75°
2026-05-06 08:44 48.69506 9.23556 1213 ft 30 kts 74°
2026-05-06 08:45 48.69568 9.23878 1207 ft 33 kts 73°
2026-05-06 08:45 48.69596 9.24191 1197 ft 28 kts 112°
2026-05-06 08:45 48.69444 9.24329 1189 ft 26 kts 181°
2026-05-06 08:45 48.69372 9.24229 1192 ft 0 kts 255°
2026-05-06 08:47 48.69366 9.24196 1192 ft 11 kts 254°
2026-05-06 08:47 48.69272 9.23703 1202 ft 88 kts 253°
2026-05-06 08:47 48.69038 9.22467 1228 ft 154 kts 253°
2026-05-06 08:47 48.68701 9.20671 1471 ft 194 kts 253°
2026-05-06 08:48 48.68338 9.18696 2259 ft 199 kts 254°
2026-05-06 08:48 48.67924 9.16630 2855 ft 212 kts 252°
2026-05-06 08:48 48.67462 9.14449 3353 ft 221 kts 255°
2026-05-06 08:48 48.67098 9.12172 3887 ft 228 kts 256°
2026-05-06 08:49 48.66667 9.09765 4355 ft 247 kts 254°
2026-05-06 08:49 48.66185 9.07224 5111 ft 254 kts 254°
2026-05-06 08:49 48.65642 9.04631 5701 ft 263 kts 245°
2026-05-06 08:49 48.64411 9.02664 6318 ft 262 kts 207°
2026-05-06 08:50 48.62628 9.02003 7036 ft 271 kts 183°
2026-05-06 08:50 48.60717 9.02157 7770 ft 280 kts 175°
2026-05-06 08:50 48.58776 9.02507 8490 ft 289 kts 174°
2026-05-06 08:50 48.56757 9.02912 9240 ft 297 kts 174°
2026-05-06 08:51 48.54666 9.03332 9768 ft 313 kts 174°
2026-05-06 08:51 48.52444 9.03770 10154 ft 331 kts 174°
2026-05-06 08:51 48.50101 9.04221 10533 ft 347 kts 174°
2026-05-06 08:51 48.47660 9.04682 10988 ft 358 kts 174°
2026-05-06 08:52 48.45177 9.05145 11769 ft 361 kts 174°
2026-05-06 08:52 48.42679 9.05605 12539 ft 363 kts 174°
2026-05-06 08:52 48.40165 9.06064 13330 ft 365 kts 174°
2026-05-06 08:52 48.37645 9.06521 14065 ft 366 kts 174°
2026-05-06 08:53 48.35108 9.06979 14784 ft 367 kts 174°
2026-05-06 08:53 48.32567 9.07437 15515 ft 368 kts 174°
2026-05-06 08:53 48.30019 9.07895 16273 ft 369 kts 174°
2026-05-06 08:53 48.27466 9.08353 16983 ft 372 kts 174°
2026-05-06 08:54 48.24886 9.08815 17632 ft 375 kts 174°
2026-05-06 08:54 48.22279 9.09281 18250 ft 379 kts 174°
2026-05-06 08:54 48.19653 9.09751 18837 ft 381 kts 174°
2026-05-06 08:54 48.17007 9.10224 19421 ft 384 kts 174°
2026-05-06 08:55 48.14351 9.10698 20013 ft 386 kts 174°
2026-05-06 08:55 48.11679 9.11174 20623 ft 387 kts 174°
2026-05-06 08:55 48.09009 9.11650 21239 ft 388 kts 174°
2026-05-06 08:55 48.06324 9.12128 21881 ft 388 kts 174°
2026-05-06 08:56 48.03644 9.12604 22521 ft 388 kts 174°
2026-05-06 08:56 48.00966 9.13080 23176 ft 387 kts 174°
2026-05-06 08:56 47.98297 9.13554 23763 ft 386 kts 174°
2026-05-06 08:56 47.95633 9.14026 24331 ft 385 kts 175°
2026-05-06 08:57 47.92967 9.14497 24789 ft 387 kts 175°
2026-05-06 08:57 47.90288 9.14971 25230 ft 389 kts 175°
2026-05-06 08:57 47.87599 9.15445 25674 ft 390 kts 175°
2026-05-06 08:57 47.84898 9.15921 26136 ft 391 kts 176°
2026-05-06 08:58 47.82202 9.16396 26601 ft 391 kts 176°
2026-05-06 08:58 47.79490 9.16874 27031 ft 393 kts 176°
2026-05-06 08:58 47.76770 9.17352 27464 ft 394 kts 176°
2026-05-06 08:58 47.74043 9.17831 27884 ft 395 kts 176°
2026-05-06 08:59 47.71314 9.18310 28333 ft 396 kts 176°
2026-05-06 08:59 47.68574 9.18791 28764 ft 396 kts 176°
2026-05-06 08:59 47.65839 9.19270 29214 ft 396 kts 176°
2026-05-06 08:59 47.63102 9.19750 29665 ft 396 kts 177°
2026-05-06 09:00 47.60370 9.20228 30080 ft 395 kts 178°
2026-05-06 09:00 47.57636 9.20705 30424 ft 396 kts 178°
2026-05-06 09:00 47.54894 9.21183 30761 ft 397 kts 178°
2026-05-06 09:01 47.49329 9.22147 30831 ft 408 kts 178°
2026-05-06 09:01 47.43595 9.23141 30823 ft 419 kts 178°
2026-05-06 09:02 47.37814 9.24148 30813 ft 418 kts 178°
2026-05-06 09:02 47.32058 9.25148 30814 ft 415 kts 178°
2026-05-06 09:03 47.26371 9.26130 30821 ft 413 kts 178°
2026-05-06 09:03 47.20676 9.27111 30824 ft 411 kts 178°
2026-05-06 09:04 47.14993 9.28087 30819 ft 411 kts 178°
2026-05-06 09:04 47.09292 9.29098 30801 ft 414 kts 175°
2026-05-06 09:04 47.06498 9.30254 30815 ft 423 kts 164°
2026-05-06 09:05 47.03809 9.32091 30827 ft 430 kts 158°
2026-05-06 09:05 47.01288 9.34519 30811 ft 440 kts 147°
2026-05-06 09:05 46.98969 9.37491 30808 ft 444 kts 145°
2026-05-06 09:06 46.94406 9.43617 30809 ft 445 kts 145°
2026-05-06 09:06 46.89835 9.49728 30806 ft 445 kts 145°
2026-05-06 09:07 46.85245 9.55773 30835 ft 444 kts 146°
2026-05-06 09:07 46.80633 9.61789 30838 ft 444 kts 146°
2026-05-06 09:08 46.76024 9.67798 30823 ft 445 kts 146°
2026-05-06 09:08 46.71423 9.73788 30864 ft 444 kts 146°
2026-05-06 09:09 46.66810 9.79773 30852 ft 443 kts 147°
2026-05-06 09:09 46.62199 9.85744 30874 ft 446 kts 147°
2026-05-06 09:10 46.57550 9.91743 30861 ft 448 kts 147°
2026-05-06 09:10 46.52893 9.97751 30865 ft 447 kts 147°
2026-05-06 09:11 46.48245 10.03728 30870 ft 445 kts 147°
2026-05-06 09:11 46.43541 10.09521 30821 ft 442 kts 149°
2026-05-06 09:12 46.38785 10.15164 30882 ft 442 kts 149°
2026-05-06 09:12 46.34029 10.20796 30911 ft 442 kts 149°
2026-05-06 09:13 46.29270 10.26486 30911 ft 444 kts 149°
2026-05-06 09:13 46.24496 10.32191 30897 ft 447 kts 149°
2026-05-06 09:14 46.20507 10.36938 30907 ft 447 kts 149°
2026-05-06 09:14 46.15700 10.42639 30878 ft 448 kts 149°
2026-05-06 09:15 46.10896 10.48336 30916 ft 447 kts 149°
2026-05-06 09:15 46.06085 10.54033 30922 ft 448 kts 149°
2026-05-06 09:16 46.01278 10.59715 30908 ft 447 kts 149°
2026-05-06 09:16 45.96480 10.65374 30945 ft 446 kts 149°
2026-05-06 09:17 45.91678 10.71015 30922 ft 446 kts 149°
2026-05-06 09:17 45.86861 10.76626 30915 ft 447 kts 149°
2026-05-06 09:17 45.84450 10.79433 30532 ft 445 kts 150°
2026-05-06 09:18 45.82061 10.82215 30116 ft 439 kts 149°
2026-05-06 09:18 45.79707 10.84950 29604 ft 433 kts 149°
2026-05-06 09:18 45.77376 10.87647 29096 ft 429 kts 149°
2026-05-06 09:18 45.75064 10.90315 28613 ft 426 kts 149°
2026-05-06 09:19 45.72768 10.92963 28103 ft 422 kts 149°
2026-05-06 09:19 45.70489 10.95591 27663 ft 419 kts 149°
2026-05-06 09:19 45.68224 10.98200 27176 ft 417 kts 149°
2026-05-06 09:19 45.65890 11.00597 26715 ft 408 kts 157°
2026-05-06 09:20 45.63372 11.02341 26207 ft 398 kts 165°
2026-05-06 09:20 45.60772 11.03542 25769 ft 389 kts 173°
2026-05-06 09:20 45.58124 11.04227 25332 ft 385 kts 176°
2026-05-06 09:20 45.55489 11.04845 24906 ft 383 kts 176°
2026-05-06 09:21 45.52863 11.05458 24445 ft 381 kts 176°
2026-05-06 09:21 45.50257 11.06074 24027 ft 379 kts 175°
2026-05-06 09:21 45.47665 11.06694 23620 ft 380 kts 175°
2026-05-06 09:21 45.44985 11.07332 23178 ft 402 kts 175°
2026-05-06 09:22 45.42193 11.07999 22702 ft 421 kts 175°
2026-05-06 09:22 45.39317 11.08697 22221 ft 419 kts 174°
2026-05-06 09:22 45.36449 11.09400 21751 ft 417 kts 174°
2026-05-06 09:22 45.33607 11.10096 21274 ft 414 kts 174°
2026-05-06 09:23 45.31338 11.10649 20800 ft 413 kts 174°
2026-05-06 09:23 45.28504 11.11337 20222 ft 411 kts 174°
2026-05-06 09:23 45.25697 11.12018 19654 ft 406 kts 174°
2026-05-06 09:23 45.22934 11.12687 19089 ft 400 kts 174°
2026-05-06 09:24 45.20212 11.13344 18546 ft 394 kts 174°
2026-05-06 09:24 45.17526 11.13992 17992 ft 389 kts 174°
2026-05-06 09:24 45.14879 11.14628 17370 ft 384 kts 174°
2026-05-06 09:24 45.12261 11.15256 16769 ft 379 kts 174°
2026-05-06 09:25 45.09676 11.15874 16183 ft 375 kts 174°
2026-05-06 09:25 45.07112 11.16488 15604 ft 371 kts 174°
2026-05-06 09:25 45.04578 11.17093 15038 ft 368 kts 174°
2026-05-06 09:25 45.02056 11.17695 14473 ft 366 kts 174°
2026-05-06 09:26 44.99546 11.18293 13918 ft 366 kts 174°
2026-05-06 09:26 44.97041 11.18890 13349 ft 364 kts 174°
2026-05-06 09:26 44.94545 11.19485 12746 ft 363 kts 174°
2026-05-06 09:26 44.92059 11.20076 12161 ft 362 kts 174°
2026-05-06 09:27 44.89579 11.20664 11574 ft 361 kts 174°
2026-05-06 09:27 44.87109 11.21243 11125 ft 359 kts 174°
2026-05-06 09:27 44.84642 11.21819 10998 ft 360 kts 174°
2026-05-06 09:27 44.82168 11.22396 10553 ft 360 kts 174°
2026-05-06 09:28 44.79710 11.22970 10119 ft 356 kts 173°
2026-05-06 09:28 44.77272 11.23284 9652 ft 349 kts 186°
2026-05-06 09:28 44.74924 11.22554 9203 ft 344 kts 198°
2026-05-06 09:28 44.72628 11.21654 8730 ft 344 kts 191°
2026-05-06 09:29 44.70234 11.21792 8273 ft 350 kts 169°
2026-05-06 09:29 44.67982 11.23152 7892 ft 358 kts 151°
2026-05-06 09:29 44.66088 11.25478 7414 ft 370 kts 133°
2026-05-06 09:29 44.64655 11.28487 7159 ft 371 kts 123°
2026-05-06 09:30 44.63487 11.31390 6966 ft 367 kts 120°
2026-05-06 09:30 44.62656 11.34521 6686 ft 371 kts 109°
2026-05-06 09:30 44.61671 11.37805 6282 ft 361 kts 125°
2026-05-06 09:30 44.60344 11.40754 5851 ft 355 kts 124°
2026-05-06 09:31 44.59195 11.43797 5479 ft 352 kts 119°
2026-05-06 09:31 44.58122 11.46881 5101 ft 351 kts 119°
2026-05-06 09:31 44.57063 11.49944 4729 ft 346 kts 119°
2026-05-06 09:31 44.56007 11.52937 4344 ft 339 kts 119°
2026-05-06 09:32 44.54964 11.55859 3970 ft 332 kts 120°
2026-05-06 09:32 44.53868 11.58667 3586 ft 324 kts 129°
2026-05-06 09:32 44.52230 11.60712 3208 ft 312 kts 154°
2026-05-06 09:32 44.50208 11.61584 3122 ft 300 kts 176°
2026-05-06 09:33 44.48150 11.61868 3139 ft 304 kts 166°
2026-05-06 09:33 44.46188 11.63059 3085 ft 312 kts 150°
2026-05-06 09:33 44.44125 11.63730 2846 ft 312 kts 210°
2026-05-06 09:33 44.42994 11.61334 2656 ft 301 kts 250°
2026-05-06 09:34 44.42590 11.58592 2923 ft 277 kts 263°
2026-05-06 09:34 44.42947 11.56031 2955 ft 268 kts 296°
2026-05-06 09:34 44.44029 11.53944 3001 ft 254 kts 301°
2026-05-06 09:34 44.44951 11.51940 3002 ft 243 kts 297°
2026-05-06 09:35 44.45836 11.49908 3031 ft 243 kts 296°
2026-05-06 09:35 44.46672 11.47841 3007 ft 246 kts 294°
2026-05-06 09:35 44.47469 11.45758 2949 ft 243 kts 294°
2026-05-06 09:35 44.48238 11.43700 2611 ft 231 kts 293°
2026-05-06 09:36 44.48933 11.41758 2272 ft 216 kts 292°
2026-05-06 09:36 44.49584 11.39931 1944 ft 205 kts 292°
2026-05-06 09:36 44.50207 11.38189 1627 ft 196 kts 293°
2026-05-06 09:36 44.50805 11.36515 1320 ft 190 kts 295°
2026-05-06 09:37 44.51389 11.34884 1028 ft 186 kts 297°
2026-05-06 09:37 44.51976 11.33246 757 ft 190 kts 298°
2026-05-06 09:37 44.52566 11.31601 465 ft 186 kts 298°
2026-05-06 09:37 44.53133 11.30047 243 ft 172 kts 297°
2026-05-06 09:38 44.53634 11.28618 126 ft 144 kts 297°
2026-05-06 09:38 44.53969 11.27687 124 ft 59 kts 297°
2026-05-06 09:38 44.54023 11.27538 126 ft 2 kts 297°